Regional Weather Roundup
Issued by NWS

Home | Current Version | Previous Version | Text Only | Print | Product List | Glossary On
Versions: 1 2 3 4 5 6 7 8 9 10 11 12 13 14 15 16 17 18 19 20 21 22 23 24 25 26 27 28 29 30 31 32 33 34 35 36 37 38 39 40 41 42 43 44 45 46 47 48 49 50
000
ASUS43 KLOT 291308
RWRIL

ILLINOIS REGIONAL WEATHER ROUNDUP
NATIONAL WEATHER SERVICE CHICAGO/ROMEOVILLE IL
800 AM CDT SAT APR 29 2017

NOTE: "FAIR" INDICATES FEW OR NO CLOUDS BELOW 12,000 FEET WITH NO
SIGNIFICANT WEATHER AND/OR OBSTRUCTIONS TO VISIBILITY.

* THESE STATIONS ARE NOT UNDER NWS QUALITY CONTROL. THEY ALSO MAY NOT
  REPORT WEATHER SUCH AS PRECIPITATION OR FOG.

ILZ001-002-007-009-015-016-024-291400-
NORTHWEST ILLINOIS

CITY           SKY/WX    TMP DP  RH WIND       PRES   REMARKS
MOLINE         CLOUDY    47  42  83 E17G26    30.09R
STERLING*      CLOUDY    45  34  65 NE18G30   30.11R
SAVANNA*       CLOUDY    46  37  73 NE17G23   30.15R
$$

ILZ003-004-008-010-011-017-018-291400-
NORTH CENTRAL ILLINOIS

CITY           SKY/WX    TMP DP  RH WIND       PRES   REMARKS
ROCKFORD       CLOUDY    46  32  58 NE14G22   30.19R
FREEPORT*      CLOUDY    43  33  69 NE17      30.19R
ROCHELLE*      CLOUDY    44  34  69 NE24      30.14R
DE KALB*       CLOUDY    44  34  69 NE22      30.15R
PERU*          CLOUDY    45  38  77 NE22      30.10S
$$

ILZ005-006-012>014-019>023-291400-
NORTHEAST ILLINOIS

CITY           SKY/WX    TMP DP  RH WIND       PRES   REMARKS
CHICAGO-OHARE  CLOUDY    45  30  55 NE17G26   30.15F
CHICAGO-MIDWAY CLOUDY    46  37  71 NE18G28   30.14F
AURORA         CLOUDY    47  35  63 NE21G30   30.13S
LANSING*       CLOUDY    46  40  81 NE15G22   30.13R
JOLIET*        CLOUDY    47  38  70 NE18G29   30.11R
WAUKEGAN       CLOUDY    42  35  76 NE16G26   30.17R
DUPAGE AIRPORT CLOUDY    45  34  65 NE23      30.14S
KANKAKEE*      CLOUDY    46  40  79 NE15G25   30.09R
WHEELING       CLOUDY    44  32  62 NE16G30   30.17S
MORRIS*        CLOUDY    46  38  71 NE7       30.10R
ROMEOVILLE*    CLOUDY    46  39  78 NE18G29   30.12R
NORTHERLY ISL    N/A     44  38  79 N20         N/A
$$

LMZ740>746-291400-
SOUTHERN LAKE MICHIGAN

STATION/POSITION SKY/WX   TEMP    WIND        PRES    VSBY  WAVE
                          AIR SEA DIR/SP/G                  HT/PER
                          (F)     (DEG/KT/KT) (MB)    (MI)  (FT/S)
SOUTHERN BUOY              42 41   10/ 19/ 21 1021.4          3/ 5
HARRISON CRIB              44      10/ 21/ 23   N/A
BURNHAM HARBOR             44     360/ 19/ 20   N/A
CALUMET HARBOR             45     350/ 15/ 22 1019.9F
BURNS HARBOR               45      20/ 18/ 21 1020.0F
MICHIGAN CITY              44      10/ 21/ 23   N/A
MICHIGAN CITY 6N           44 46                N/A           4/ 5
ST. JOSEPH                 48 48   60/ 14/ 17 1020.7          3/ 4
$$

ILZ025>027-034>036-040-047-049-050-058-095>099-291400-
WEST-CENTRAL ILLINOIS

CITY           SKY/WX    TMP DP  RH WIND       PRES   REMARKS
QUINCY         CLOUDY    51  49  92 NE25G39   29.85F FOG
GALESBURG*     CLOUDY    46  42  86 NE13G24   30.05R
MACOMB*        CLOUDY    48  46  91 NE22      30.03F FOG
JACKSONVILLE*  CLOUDY    49  47  93 NE21G33   29.90F FOG
PITTSFIELD*    CLOUDY    53  53  98 NE22G28   29.88R FOG
$$

ILZ028>032-037-038-041>044-048-051>054-059>061-291400-
CENTRAL ILLINOIS

CITY           SKY/WX    TMP DP  RH WIND       PRES   REMARKS
PONTIAC        CLOUDY    47  43  85 NE21G30   30.06F
BLOOMINGTON    LGT RAIN  45  43  93 NE20      30.06R
DECATUR        LGT RAIN  48  48 100 NE14      30.06R
PEORIA         LGT RAIN  47  42  83 NE15G26   30.05R
LACON*         CLOUDY    46  40  81 NE10G22   30.07F
LINCOLN*       LGT RAIN  48  47  96 NE14      30.05R
SPRINGFIELD    LGT RAIN  50  47  89 NE30G37   29.89F FOG
TAYLORVILLE    CLOUDY    49  49  99 NE21G26   29.93F
$$

ILZ033-039-045-046-055>057-062-063-291400-
EAST-CENTRAL ILLINOIS

CITY           SKY/WX    TMP DP  RH WIND       PRES   REMARKS
CHAMPAIGN      RAIN      49  46  90 N16       30.05R FOG
RANTOUL*       RAIN      50  47  91 N14G21    30.06R
MATTOON        LGT RAIN  53  52  96 N15       30.00F FOG
PARIS*         RAIN      55  55 100 N6        30.03R
$$

ILZ079-100>102-291400-
SOUTHWEST ILLINOIS

CITY           SKY/WX    TMP DP  RH WIND       PRES   REMARKS
ALTON          DRIZZLE   55  54  94 E15G23    29.87F
BELLEVILLE     TSTM      57  57 100 E10       29.88F
CAHOKIA*       TSTM      59  56  89 E5G17     29.88R
SPARTA*        TSTM      59  57  94 E14       29.91R
$$

ILZ064>066-069>071-074>076-080>082-084>086-088>090-092>094-291400-
SOUTH-CENTRAL ILLINOIS

CITY           SKY/WX    TMP DP  RH WIND       PRES   REMARKS
CARBONDALE     HVY RAIN  64  64 100 E16       29.91S FOG
CAIRO*         CLOUDY    66  65  96 N7        29.93R
EFFINGHAM*     RAIN      58  58 100 N9        29.98F
MARION         TSTM      64  64 100 SE12      29.95R
MT. VERNON     RAIN      62  62 100 NE12      29.93S
CENTRALIA*     TSTM      60  60 100 NE6       29.92F
SALEM*         TSTM      60  58  94 NE10      29.92F
METROPOLIS*    CLOUDY    75  69  81 S7        29.94R
$$

ILZ067-068-072-073-078-083-087-091-291400-
SOUTHEAST ILLINOIS

CITY           SKY/WX    TMP DP  RH WIND       PRES   REMARKS
LAWRENCEVILLE  HVY RAIN  60  60 100 SE7       29.99R FOG
FLORA*         TSTM      62  60  96 N3        29.97R
FAIRFIELD*     TSTM      63  63 100 E3        29.96R
HARRISBURG*    CLOUDY    64  63  98 SE12      30.00R
ROBINSON*      TSTM      58  58 100 SW3       30.00R
CARMI*           N/A     64  64 100 SE17      30.00R
$$

ABBREVIATIONS USED IN REMARKS
   TC - TEMPERATURE IN CELSIUS
  WCI - WIND CHILL INDEX
   HX - HEAT INDEX
  VSB - VISIBILITY
$$




USA.gov is the U.S. government's official web portal to all federal, state and local government web resources and services.